Tracking 19164 objects as of 20-May-2018
HD Live streaming from Space Station
objects crossing your sky now

WESTFORD NEEDLES

Track WESTFORD NEEDLES now!
10-day predictions
WESTFORD NEEDLES is classified as:


NORAD ID: 3239
Int'l Code: 1963-014BD
Perigee: 3,619.4 km
Apogee: 3,682.1 km
Inclination: 87.3 °
Period: 166.4 minutes
Semi major axis: 10021 km
RCS: 0.1183 m2 (medium)
Launch date: May 9, 1963
Source: United States (US)
Launch site: AIR FORCE WESTERN TEST RANGE (AFWTR)
aabbcc
Your satellite tracking list
Your tracking list is empty




NASA's NSSDC Master Catalog

Two Line Element Set (TLE):
1  3239U 63014BD  18140.57647642 +.00000015 +00000-0 +57373-2 0  9999
2  3239 087.3197 116.0080 0031262 221.6180 138.2294 08.65345426738408
Source of the keplerian elements: AFSPC